UAL2476 KSAN-KDEN

Flight info

Callsign UAL2476
Flight time 1h 37m
Altitude 35000
Route ZZOOO4 MTBAL EED J236 TBC CRUDD TBARR4
Aircraft B739/M-SDE2E3FGHIRWXY/LB1

Departure

Time 2026-04-23 14:21
Airport San Diego International Airport (KSAN)

Arrival

Time 2026-04-23 15:58
Airport Denver International Airport (KDEN)
Time Latitude Longitude Altitude Speed Heading
2026-04-23 13:46 32.73429 -117.20480 22 ft 0 kts 123°
2026-04-23 14:12 32.73432 -117.20485 22 ft 3 kts 123°
2026-04-23 14:12 32.73446 -117.20512 23 ft 4 kts 123°
2026-04-23 14:12 32.73458 -117.20537 25 ft 4 kts 95°
2026-04-23 14:12 32.73453 -117.20557 26 ft 4 kts 21°
2026-04-23 14:13 32.73434 -117.20560 24 ft 4 kts
2026-04-23 14:13 32.73422 -117.20560 24 ft 0 kts
2026-04-23 14:15 32.73436 -117.20560 24 ft 8 kts
2026-04-23 14:15 32.73499 -117.20528 23 ft 11 kts 45°
2026-04-23 14:15 32.73543 -117.20470 22 ft 3 kts 49°
2026-04-23 14:16 32.73544 -117.20468 22 ft 2 kts 49°
2026-04-23 14:16 32.73583 -117.20412 23 ft 15 kts 54°
2026-04-23 14:16 32.73573 -117.20291 23 ft 15 kts 106°
2026-04-23 14:17 32.73545 -117.20165 24 ft 17 kts 99°
2026-04-23 14:17 32.73521 -117.20020 22 ft 19 kts 115°
2026-04-23 14:17 32.73471 -117.19872 22 ft 22 kts 111°
2026-04-23 14:17 32.73422 -117.19667 22 ft 29 kts 105°
2026-04-23 14:18 32.73369 -117.19448 23 ft 27 kts 106°
2026-04-23 14:18 32.73318 -117.19237 21 ft 26 kts 106°
2026-04-23 14:18 32.73270 -117.19041 23 ft 24 kts 105°
2026-04-23 14:18 32.73226 -117.18857 24 ft 23 kts 105°
2026-04-23 14:19 32.73183 -117.18679 22 ft 22 kts 106°
2026-04-23 14:19 32.73141 -117.18506 24 ft 21 kts 106°
2026-04-23 14:19 32.73099 -117.18336 21 ft 22 kts 106°
2026-04-23 14:19 32.73057 -117.18163 21 ft 21 kts 106°
2026-04-23 14:20 32.73016 -117.17993 21 ft 22 kts 106°
2026-04-23 14:20 32.72974 -117.17823 21 ft 21 kts 108°
2026-04-23 14:20 32.72960 -117.17657 22 ft 20 kts 72°
2026-04-23 14:20 32.73028 -117.17616 21 ft 11 kts 300°
2026-04-23 14:21 32.73039 -117.17655 21 ft 21 kts 287°
2026-04-23 14:21 32.73169 -117.18194 22 ft 112 kts 286°
2026-04-23 14:21 32.73456 -117.19377 40 ft 182 kts 286°
2026-04-23 14:21 32.73841 -117.20941 630 ft 207 kts 286°
2026-04-23 14:22 32.74256 -117.22673 1487 ft 224 kts 286°
2026-04-23 14:22 32.74688 -117.24459 2599 ft 229 kts 286°
2026-04-23 14:22 32.75126 -117.26271 3502 ft 233 kts 287°
2026-04-23 14:22 32.75576 -117.28124 4413 ft 233 kts 289°
2026-04-23 14:23 32.76451 -117.29782 4958 ft 248 kts 323°
2026-04-23 14:23 32.78073 -117.30534 5611 ft 259 kts 354°
2026-04-23 14:23 32.79873 -117.30224 6380 ft 269 kts 20°
2026-04-23 14:23 32.81452 -117.28973 7119 ft 280 kts 42°
2026-04-23 14:24 32.82721 -117.27171 7850 ft 288 kts 50°
2026-04-23 14:24 32.83886 -117.25199 8591 ft 295 kts 52°
2026-04-23 14:24 32.85044 -117.23156 9342 ft 300 kts 52°
2026-04-23 14:24 32.86220 -117.21079 10094 ft 305 kts 52°
2026-04-23 14:25 32.87448 -117.18933 10439 ft 325 kts 52°
2026-04-23 14:25 32.88779 -117.16636 10616 ft 349 kts 52°
2026-04-23 14:25 32.90207 -117.14191 10798 ft 370 kts 52°
2026-04-23 14:25 32.91706 -117.11635 11242 ft 380 kts 52°
2026-04-23 14:26 32.93230 -117.09040 11866 ft 385 kts 52°
2026-04-23 14:26 32.94775 -117.06417 12508 ft 389 kts 52°
2026-04-23 14:26 32.96342 -117.03762 13105 ft 394 kts 51°
2026-04-23 14:26 32.97932 -117.01069 13703 ft 400 kts 52°
2026-04-23 14:27 32.99546 -116.98337 14261 ft 405 kts 51°
2026-04-23 14:27 33.01150 -116.95622 14850 ft 408 kts 51°
2026-04-23 14:27 33.02792 -116.92841 15400 ft 412 kts 51°
2026-04-23 14:27 33.04451 -116.90031 15959 ft 416 kts 51°
2026-04-23 14:28 33.06126 -116.87193 16509 ft 420 kts 51°
2026-04-23 14:28 33.07814 -116.84330 17051 ft 424 kts 51°
2026-04-23 14:28 33.09522 -116.81430 17595 ft 428 kts 51°
2026-04-23 14:28 33.11242 -116.78507 18131 ft 432 kts 51°
2026-04-23 14:29 33.12976 -116.75559 18603 ft 436 kts 51°
2026-04-23 14:29 33.14729 -116.72577 19044 ft 441 kts 51°
2026-04-23 14:29 33.16497 -116.69564 19492 ft 445 kts 51°
2026-04-23 14:29 33.18280 -116.66525 19951 ft 448 kts 52°
2026-04-23 14:30 33.20076 -116.63462 20407 ft 452 kts 52°
2026-04-23 14:30 33.21887 -116.60370 20862 ft 455 kts 52°
2026-04-23 14:30 33.23708 -116.57257 21298 ft 459 kts 52°
2026-04-23 14:30 33.25542 -116.54121 21740 ft 463 kts 52°
2026-04-23 14:31 33.27391 -116.50956 22148 ft 467 kts 52°
2026-04-23 14:31 33.29257 -116.47759 22566 ft 470 kts 52°
2026-04-23 14:31 33.31131 -116.44545 22990 ft 474 kts 52°
2026-04-23 14:31 33.33026 -116.41294 23358 ft 477 kts 52°
2026-04-23 14:32 33.34928 -116.38027 23729 ft 480 kts 52°
2026-04-23 14:32 33.36815 -116.34782 24060 ft 483 kts 52°
2026-04-23 14:32 33.38743 -116.31465 24378 ft 487 kts 52°
2026-04-23 14:32 33.40685 -116.28120 24689 ft 491 kts 52°
2026-04-23 14:33 33.42638 -116.24753 25015 ft 494 kts 52°
2026-04-23 14:33 33.44604 -116.21361 25342 ft 497 kts 52°
2026-04-23 14:33 33.46574 -116.17957 25695 ft 499 kts 52°
2026-04-23 14:33 33.48559 -116.14526 25956 ft 504 kts 52°
2026-04-23 14:34 33.50564 -116.11059 26207 ft 508 kts 52°
2026-04-23 14:34 33.52591 -116.07548 26503 ft 512 kts 52°
2026-04-23 14:34 33.54622 -116.04028 26805 ft 514 kts 52°
2026-04-23 14:34 33.56640 -116.00526 27107 ft 518 kts 52°
2026-04-23 14:35 33.58693 -115.96959 27405 ft 521 kts 52°
2026-04-23 14:35 33.60757 -115.93371 27682 ft 524 kts 52°
2026-04-23 14:35 33.62834 -115.89756 27951 ft 528 kts 52°
2026-04-23 14:35 33.64925 -115.86113 28221 ft 531 kts 52°
2026-04-23 14:36 33.67027 -115.82449 28495 ft 534 kts 52°
2026-04-23 14:36 33.69136 -115.78767 28755 ft 537 kts 52°
2026-04-23 14:36 33.71259 -115.75057 29022 ft 540 kts 52°
2026-04-23 14:36 33.73391 -115.71328 29285 ft 543 kts 52°
2026-04-23 14:37 33.75526 -115.67589 29735 ft 541 kts 52°
2026-04-23 14:37 33.77651 -115.63861 30144 ft 542 kts 52°
2026-04-23 14:37 33.79783 -115.60120 30427 ft 543 kts 52°
2026-04-23 14:37 33.81916 -115.56373 30711 ft 544 kts 51°
2026-04-23 14:38 33.84057 -115.52610 31049 ft 544 kts 51°
2026-04-23 14:38 33.86191 -115.48853 31366 ft 544 kts 51°
2026-04-23 14:38 33.88327 -115.45091 31650 ft 544 kts 51°
2026-04-23 14:38 33.90462 -115.41326 31930 ft 545 kts 51°
2026-04-23 14:39 33.92602 -115.37548 32246 ft 545 kts 51°
2026-04-23 14:39 33.94735 -115.33778 32565 ft 545 kts 51°
2026-04-23 14:39 33.96870 -115.30001 32843 ft 545 kts 51°
2026-04-23 14:39 33.99005 -115.26222 33072 ft 547 kts 51°
2026-04-23 14:40 34.01146 -115.22427 33360 ft 547 kts 51°
2026-04-23 14:40 34.03280 -115.18638 33672 ft 547 kts 51°
2026-04-23 14:40 34.05413 -115.14846 33967 ft 546 kts 51°
2026-04-23 14:40 34.07545 -115.11054 34286 ft 544 kts 50°
2026-04-23 14:41 34.09632 -115.07335 34656 ft 540 kts 50°
2026-04-23 14:41 34.11731 -115.03592 34974 ft 538 kts 50°
2026-04-23 14:41 34.15948 -114.96069 34977 ft 540 kts 50°
2026-04-23 14:42 34.20139 -114.88573 34966 ft 536 kts 50°
2026-04-23 14:42 34.24301 -114.81112 34962 ft 534 kts 50°
2026-04-23 14:43 34.28437 -114.73684 34952 ft 531 kts 50°
2026-04-23 14:43 34.32562 -114.66264 34946 ft 532 kts 50°
2026-04-23 14:44 34.36696 -114.58820 34971 ft 540 kts 50°
2026-04-23 14:44 34.40881 -114.51255 34972 ft 541 kts 50°
2026-04-23 14:45 34.45065 -114.43674 34987 ft 541 kts 50°
2026-04-23 14:45 34.49246 -114.36082 34999 ft 541 kts 50°
2026-04-23 14:46 34.53422 -114.28485 35004 ft 541 kts 50°
2026-04-23 14:46 34.57590 -114.20888 34997 ft 541 kts 50°
2026-04-23 14:47 34.61752 -114.13287 34959 ft 540 kts 50°
2026-04-23 14:47 34.65896 -114.05701 34942 ft 538 kts 50°
2026-04-23 14:48 34.70019 -113.98124 34912 ft 538 kts 51°
2026-04-23 14:48 34.74083 -113.90484 34904 ft 537 kts 51°
2026-04-23 14:49 34.78129 -113.82915 34899 ft 537 kts 51°
2026-04-23 14:49 34.82232 -113.75323 34894 ft 535 kts 50°
2026-04-23 14:50 34.86334 -113.67753 34897 ft 535 kts 50°
2026-04-23 14:50 34.90397 -113.60240 34901 ft 534 kts 51°
2026-04-23 14:51 34.94476 -113.52674 34901 ft 534 kts 51°
2026-04-23 14:51 34.98550 -113.45098 34898 ft 534 kts 51°
2026-04-23 14:52 35.02619 -113.37513 34898 ft 533 kts 51°
2026-04-23 14:52 35.05994 -113.31210 34912 ft 533 kts 51°
2026-04-23 14:53 35.10050 -113.23622 34913 ft 533 kts 51°
2026-04-23 14:53 35.14089 -113.16046 34928 ft 532 kts 51°
2026-04-23 14:54 35.18096 -113.08516 34932 ft 531 kts 51°
2026-04-23 14:54 35.22120 -113.00937 34938 ft 530 kts 51°
2026-04-23 14:55 35.26130 -112.93369 34947 ft 529 kts 51°
2026-04-23 14:55 35.30127 -112.85809 34953 ft 528 kts 51°
2026-04-23 14:56 35.34111 -112.78258 34967 ft 527 kts 51°
2026-04-23 14:56 35.38091 -112.70698 34964 ft 527 kts 51°
2026-04-23 14:57 35.42027 -112.63204 34967 ft 525 kts 51°
2026-04-23 14:57 35.45981 -112.55659 34992 ft 524 kts 51°
2026-04-23 14:58 35.49920 -112.48129 35009 ft 524 kts 51°
2026-04-23 14:58 35.53850 -112.40598 35028 ft 524 kts 51°
2026-04-23 14:59 35.57756 -112.33097 35029 ft 524 kts 52°
2026-04-23 14:59 35.61676 -112.25555 35021 ft 524 kts 52°
2026-04-23 15:00 35.65599 -112.17989 35027 ft 524 kts 52°
2026-04-23 15:00 35.69518 -112.10413 35040 ft 525 kts 52°
2026-04-23 15:01 35.73434 -112.02828 35050 ft 525 kts 52°
2026-04-23 15:01 35.77351 -111.95223 35052 ft 526 kts 52°
2026-04-23 15:02 35.81267 -111.87604 35034 ft 527 kts 52°
2026-04-23 15:02 35.85184 -111.79963 34998 ft 528 kts 52°
2026-04-23 15:03 35.89082 -111.72346 34956 ft 528 kts 52°
2026-04-23 15:03 35.92990 -111.64690 34942 ft 528 kts 52°
2026-04-23 15:04 35.96911 -111.56994 34929 ft 528 kts 52°
2026-04-23 15:04 36.00818 -111.49304 34926 ft 528 kts 52°
2026-04-23 15:05 36.04686 -111.41675 34932 ft 527 kts 52°
2026-04-23 15:05 36.08572 -111.33991 34931 ft 527 kts 52°
2026-04-23 15:06 36.12456 -111.26295 34933 ft 527 kts 52°
2026-04-23 15:06 36.16150 -111.18412 34939 ft 530 kts 55°
2026-04-23 15:07 36.19707 -111.10405 34933 ft 530 kts 56°
2026-04-23 15:07 36.23245 -111.02454 34941 ft 530 kts 55°
2026-04-23 15:08 36.26833 -110.94473 34932 ft 530 kts 55°
2026-04-23 15:09 36.32242 -110.82468 34931 ft 531 kts 55°
2026-04-23 15:09 36.35843 -110.74451 34927 ft 532 kts 55°
2026-04-23 15:10 36.38830 -110.67779 34923 ft 533 kts 55°
2026-04-23 15:10 36.43006 -110.58429 34918 ft 533 kts 55°
2026-04-23 15:11 36.46604 -110.50350 34919 ft 533 kts 55°
2026-04-23 15:11 36.50195 -110.42268 34911 ft 533 kts 55°
2026-04-23 15:12 36.53756 -110.34236 34918 ft 534 kts 55°
2026-04-23 15:12 36.57336 -110.26141 34907 ft 534 kts 55°
2026-04-23 15:13 36.60915 -110.18026 34903 ft 534 kts 55°
2026-04-23 15:13 36.64488 -110.09907 34911 ft 535 kts 55°
2026-04-23 15:14 36.68059 -110.01771 34907 ft 535 kts 55°
2026-04-23 15:14 36.71624 -109.93629 34915 ft 535 kts 55°
2026-04-23 15:15 36.75164 -109.85525 34919 ft 536 kts 55°
2026-04-23 15:15 36.78726 -109.77350 34919 ft 536 kts 55°
2026-04-23 15:16 36.82285 -109.69160 34924 ft 537 kts 55°
2026-04-23 15:16 36.85842 -109.60956 34923 ft 538 kts 55°
2026-04-23 15:17 36.89401 -109.52725 34923 ft 538 kts 55°
2026-04-23 15:17 36.92957 -109.44479 34934 ft 539 kts 55°
2026-04-23 15:18 36.96515 -109.36211 34930 ft 540 kts 55°
2026-04-23 15:18 37.00075 -109.27915 34927 ft 541 kts 56°
2026-04-23 15:19 37.03608 -109.19659 34924 ft 541 kts 56°
2026-04-23 15:19 37.07158 -109.11344 34929 ft 541 kts 56°
2026-04-23 15:20 37.10106 -109.04423 34935 ft 541 kts 56°
2026-04-23 15:20 37.14244 -108.94682 34969 ft 542 kts 56°
2026-04-23 15:21 37.17757 -108.86390 35005 ft 542 kts 56°
2026-04-23 15:21 37.21293 -108.78023 35033 ft 543 kts 56°
2026-04-23 15:22 37.24821 -108.69650 35074 ft 542 kts 56°
2026-04-23 15:22 37.28339 -108.61282 35074 ft 542 kts 56°
2026-04-23 15:23 37.31858 -108.52889 35068 ft 542 kts 56°
2026-04-23 15:23 37.35366 -108.44501 35039 ft 543 kts 56°
2026-04-23 15:24 37.38875 -108.36086 35000 ft 543 kts 56°
2026-04-23 15:24 37.42352 -108.27728 34969 ft 543 kts 56°
2026-04-23 15:25 37.45853 -108.19288 34950 ft 543 kts 56°
2026-04-23 15:25 37.49343 -108.10853 34942 ft 543 kts 56°
2026-04-23 15:26 37.52810 -108.02454 34933 ft 543 kts 57°
2026-04-23 15:26 37.56288 -107.94002 34942 ft 542 kts 57°
2026-04-23 15:27 37.59762 -107.85538 34936 ft 543 kts 57°
2026-04-23 15:27 37.63229 -107.77071 34955 ft 543 kts 57°
2026-04-23 15:28 37.66687 -107.68600 34936 ft 543 kts 57°
2026-04-23 15:28 37.70131 -107.60140 34931 ft 543 kts 57°
2026-04-23 15:29 37.73579 -107.51651 34946 ft 542 kts 57°
2026-04-23 15:29 37.75482 -107.47591 34917 ft 530 kts 44°
2026-04-23 15:29 37.77928 -107.44287 34963 ft 516 kts 34°
2026-04-23 15:30 37.83236 -107.38195 34943 ft 514 kts 32°
2026-04-23 15:30 37.88560 -107.32116 34926 ft 517 kts 33°
2026-04-23 15:31 37.93846 -107.25909 34927 ft 519 kts 34°
2026-04-23 15:31 37.99117 -107.19643 34911 ft 520 kts 34°
2026-04-23 15:32 38.04393 -107.13361 34906 ft 520 kts 34°
2026-04-23 15:32 38.09676 -107.07069 34910 ft 520 kts 35°
2026-04-23 15:33 38.14911 -107.00808 34898 ft 522 kts 37°
2026-04-23 15:33 38.19793 -106.93868 34916 ft 529 kts 44°
2026-04-23 15:34 38.24408 -106.86550 34920 ft 529 kts 44°
2026-04-23 15:34 38.29039 -106.79292 34947 ft 526 kts 44°
2026-04-23 15:35 38.33713 -106.72130 34951 ft 525 kts 44°
2026-04-23 15:35 38.38362 -106.65047 34937 ft 524 kts 44°
2026-04-23 15:36 38.43027 -106.57913 34906 ft 523 kts 44°
2026-04-23 15:36 38.47670 -106.50786 34866 ft 522 kts 44°
2026-04-23 15:37 38.52297 -106.43665 34866 ft 520 kts 45°
2026-04-23 15:37 38.56131 -106.37752 34878 ft 519 kts 45°
2026-04-23 15:38 38.61489 -106.29470 34807 ft 520 kts 45°
2026-04-23 15:38 38.63820 -106.25866 34141 ft 528 kts 45°
2026-04-23 15:38 38.66163 -106.22239 33322 ft 530 kts 45°
2026-04-23 15:38 38.68533 -106.18602 32363 ft 533 kts 45°
2026-04-23 15:39 38.70915 -106.14968 31665 ft 531 kts 45°
2026-04-23 15:39 38.73279 -106.11362 31063 ft 527 kts 45°
2026-04-23 15:39 38.75627 -106.07772 30460 ft 524 kts 45°
2026-04-23 15:39 38.77958 -106.04202 29805 ft 521 kts 45°
2026-04-23 15:40 38.80272 -106.00650 29124 ft 517 kts 46°
2026-04-23 15:40 38.82570 -105.97119 28484 ft 512 kts 46°
2026-04-23 15:40 38.84810 -105.93670 27875 ft 507 kts 46°
2026-04-23 15:40 38.87059 -105.90208 27243 ft 502 kts 46°
2026-04-23 15:41 38.89284 -105.86774 26646 ft 497 kts 47°
2026-04-23 15:41 38.91475 -105.83370 26066 ft 492 kts 47°
2026-04-23 15:41 38.93646 -105.79984 25479 ft 488 kts 47°
2026-04-23 15:41 38.95792 -105.76631 24898 ft 484 kts 48°
2026-04-23 15:42 38.97922 -105.73301 24273 ft 481 kts 48°
2026-04-23 15:42 39.00040 -105.69991 23692 ft 477 kts 48°
2026-04-23 15:42 39.02143 -105.66703 23091 ft 474 kts 49°
2026-04-23 15:42 39.04234 -105.63447 22527 ft 469 kts 48°
2026-04-23 15:43 39.06304 -105.60233 21957 ft 463 kts 48°
2026-04-23 15:43 39.08322 -105.57099 21407 ft 459 kts 48°
2026-04-23 15:43 39.10348 -105.53949 20845 ft 454 kts 48°
2026-04-23 15:43 39.12347 -105.50834 20311 ft 449 kts 48°
2026-04-23 15:44 39.14316 -105.47763 20056 ft 436 kts 48°
2026-04-23 15:44 39.16226 -105.44764 19665 ft 431 kts 48°
2026-04-23 15:44 39.18108 -105.41779 19182 ft 427 kts 49°
2026-04-23 15:44 39.19346 -105.39807 18839 ft 424 kts 49°
2026-04-23 15:45 39.21190 -105.36868 18385 ft 420 kts 49°
2026-04-23 15:45 39.23621 -105.32996 17694 ft 417 kts 48°
2026-04-23 15:45 39.25433 -105.30109 17305 ft 409 kts 49°
2026-04-23 15:45 39.27194 -105.27290 17124 ft 397 kts 50°
2026-04-23 15:46 39.28540 -105.24224 16849 ft 391 kts 70°
2026-04-23 15:46 39.28983 -105.21927 16566 ft 388 kts 81°
2026-04-23 15:46 39.29374 -105.18552 16188 ft 384 kts 83°
2026-04-23 15:46 39.29734 -105.15143 15766 ft 381 kts 83°
2026-04-23 15:47 39.30094 -105.11788 15546 ft 374 kts 83°
2026-04-23 15:47 39.30464 -105.08492 15278 ft 368 kts 82°
2026-04-23 15:47 39.30844 -105.05234 14900 ft 365 kts 81°
2026-04-23 15:47 39.31220 -105.02024 14684 ft 357 kts 81°
2026-04-23 15:48 39.31627 -104.98916 14566 ft 347 kts 77°
2026-04-23 15:48 39.32179 -104.95926 14426 ft 338 kts 75°
2026-04-23 15:48 39.32758 -104.92995 14290 ft 331 kts 75°
2026-04-23 15:48 39.33309 -104.90142 14159 ft 323 kts 75°
2026-04-23 15:49 39.33837 -104.87392 14000 ft 316 kts 73°
2026-04-23 15:49 39.34484 -104.84695 13714 ft 314 kts 70°
2026-04-23 15:49 39.35181 -104.82019 13425 ft 311 kts 69°
2026-04-23 15:49 39.35866 -104.79374 13120 ft 309 kts 69°
2026-04-23 15:50 39.36590 -104.76798 12972 ft 300 kts 66°
2026-04-23 15:50 39.37339 -104.74325 12853 ft 291 kts 66°
2026-04-23 15:50 39.38073 -104.71906 12749 ft 287 kts 66°
2026-04-23 15:50 39.39015 -104.69723 12619 ft 276 kts 42°
2026-04-23 15:51 39.40482 -104.68177 12578 ft 266 kts 26°
2026-04-23 15:51 39.42056 -104.66968 12468 ft 263 kts 18°
2026-04-23 15:51 39.43775 -104.66465 12380 ft 250 kts 356°
2026-04-23 15:51 39.45507 -104.66416 12305 ft 249 kts 353°
2026-04-23 15:52 39.47247 -104.66424 12200 ft 249 kts 353°
2026-04-23 15:52 39.49008 -104.66438 11931 ft 256 kts 354°
2026-04-23 15:52 39.50780 -104.66436 11611 ft 258 kts 355°
2026-04-23 15:52 39.52585 -104.66420 11277 ft 259 kts 355°
2026-04-23 15:53 39.54386 -104.66399 10933 ft 259 kts 355°
2026-04-23 15:53 39.56191 -104.66376 10601 ft 260 kts 356°
2026-04-23 15:53 39.58006 -104.66355 10253 ft 261 kts 356°
2026-04-23 15:53 39.59827 -104.66332 9937 ft 263 kts 356°
2026-04-23 15:54 39.61670 -104.66310 9575 ft 265 kts 357°
2026-04-23 15:54 39.63512 -104.66288 9243 ft 264 kts 357°
2026-04-23 15:54 39.65327 -104.66265 8866 ft 253 kts 357°
2026-04-23 15:54 39.67005 -104.66241 8535 ft 236 kts 356°
2026-04-23 15:55 39.68594 -104.66221 8220 ft 222 kts 356°
2026-04-23 15:55 39.70097 -104.66207 7938 ft 210 kts 356°
2026-04-23 15:55 39.71519 -104.66190 7653 ft 201 kts 356°
2026-04-23 15:55 39.72900 -104.66173 7428 ft 193 kts 356°
2026-04-23 15:56 39.74222 -104.66157 7165 ft 190 kts 356°
2026-04-23 15:56 39.75521 -104.66143 6927 ft 181 kts 356°
2026-04-23 15:56 39.76728 -104.66126 6707 ft 165 kts 355°
2026-04-23 15:56 39.77847 -104.66114 6523 ft 157 kts 354°
2026-04-23 15:57 39.78956 -104.66102 6327 ft 162 kts 355°
2026-04-23 15:57 39.80098 -104.66088 6084 ft 164 kts 355°
2026-04-23 15:57 39.81230 -104.66075 5827 ft 163 kts 355°
2026-04-23 15:57 39.82350 -104.66063 5614 ft 161 kts 355°
2026-04-23 15:58 39.83419 -104.66042 5371 ft 147 kts 355°
2026-04-23 15:58 39.84316 -104.66037 5364 ft 104 kts
2026-04-23 15:58 39.84833 -104.66032 5364 ft 55 kts
2026-04-23 15:58 39.85195 -104.66089 5362 ft 41 kts 338°
2026-04-23 15:59 39.85310 -104.66174 5362 ft 9 kts 329°
2026-04-23 15:59 39.85324 -104.66186 5364 ft 0 kts 329°
2026-04-23 16:00 39.85332 -104.66199 5362 ft 7 kts 295°
2026-04-23 16:00 39.85297 -104.66297 5364 ft 19 kts 263°
2026-04-23 16:00 39.85290 -104.66510 5365 ft 25 kts 257°
2026-04-23 16:00 39.85268 -104.66728 5365 ft 24 kts 272°
2026-04-23 16:01 39.85274 -104.66936 5364 ft 23 kts 270°
2026-04-23 16:01 39.85275 -104.67138 5365 ft 22 kts 270°
2026-04-23 16:01 39.85276 -104.67332 5365 ft 21 kts 271°
2026-04-23 16:01 39.85279 -104.67522 5365 ft 21 kts 273°
2026-04-23 16:02 39.85281 -104.67707 5365 ft 20 kts 270°
2026-04-23 16:02 39.85286 -104.67784 5365 ft 4 kts 305°
2026-04-23 16:02 39.85303 -104.67788 5364 ft 2 kts
2026-04-23 16:02 39.85304 -104.67788 5364 ft 0 kts
2026-04-23 16:03 39.85306 -104.67786 5364 ft 2 kts 17°
2026-04-23 16:03 39.85326 -104.67766 5365 ft 2 kts 44°
2026-04-23 16:03 39.85327 -104.67764 5364 ft 0 kts 44°